Location: *
(50.3194°N, 7.1067°E)
Time: 11:57:27
(UTC+00:00)

Cosmos 614 Rocket - Pass Details

Date: 22 September 2019
Orbit: 733 x 764 km, 74.1° (Epoch: 18 October)

Event Time Altitude Azimuth Distance (km) Brightness Sun altitude
Rises 18:39:17 0° 334° (NNW) 3,239 7.9 -11.7°
Reaches altitude 10° 18:41:40 10° 333° (NNW) 2,306 7.1 -12.0°
Maximum altitude 18:46:53 72° 250° (WSW) 801 4.2 -12.8°
Drops below altitude 10° 18:52:01 10° 167° (SSE) 2,274 6.2 -13.6°
Enters shadow 18:54:08 - 165° (SSE) 3,102 6.8 -14.0°
